Mesquite, TX

1:07 PM CDT on June 22, 2017 (GMT -0500)
Mesquite Metro

Weather History for KHQZ - March, 2013

Change the Weather History Date:

Tuesday, March 12, 2013

  Actual Average (KDFW) Record (KDFW)
Temperature  
Mean Temperature 50 °F -  
Max Temperature 66 °F 62 °F 91 °F (1918)
Min Temperature 34 °F 44 °F 14 °F (1948)
Degree Days  
Heating Degree Days 16    
Moisture  
Dew Point 29 °F    
Average Humidity 48    
Maximum Humidity 80    
Minimum Humidity 21    
Precipitation  
Precipitation 0.00 in - - ()
Sea Level Pressure  
Sea Level Pressure 30.17 in    
Wind  
Wind Speed 5 mph (ENE)    
Max Wind Speed 15 mph    
Max Gust Speed 20 mph    
Visibility 10 miles    
Events      
Averages and records for this station are not official NWS values.
T = Trace of Precipitation, MM = Missing Value Source: NWS Daily Summary

Daily Weather History Graph

Daily Weather History Graph

Search for Another Location

Airport or City:

Trip Planner

Search our weather history database for the weather conditions in past years. The results will help you decide how hot, cold, wet, or windy it might be!

Date:

Astronomy

Mar. 12, 2013 Rise Set
Actual Time 7:39 AM CDT 7:32 PM CDT
Civil Twilight 7:15 AM CDT 7:56 PM CDT
Nautical Twilight 6:46 AM CDT 8:25 PM CDT
Astronomical Twilight 6:18 AM CDT 8:53 PM CDT
Moon 7:52 AM CDT (3/12) 8:41 PM CDT (3/12)
Length of Visible Light 12h 41m
Length of Day
11h 52m
New Moon, 1% of the Moon is Illuminated
Mar 12
New Moon
Mar 19
First Quarter
Mar 27
Full
Apr 2
Last Quarter
Apr 10
New

Hourly Weather History & Observations

Time (CDT) Temp. Windchill Dew Point Humidity Pressure Visibility Wind Dir Wind Speed Gust Speed Precip Events Conditions
12:15 AM 42.1 °F 40.2 °F 26.4 °F 54% 30.08 in 10.0 mi SE 3.5 mph - N/A   Clear
12:35 AM 40.3 °F 38.2 °F 27.5 °F 60% 30.07 in 10.0 mi SE 3.5 mph - N/A   Clear
12:55 AM 37.6 °F 33.1 °F 27.9 °F 68% 30.07 in 10.0 mi SE 5.8 mph - N/A   Clear
1:15 AM 38.5 °F 35.0 °F 27.5 °F 65% 30.07 in 10.0 mi SE 4.6 mph - N/A   Clear
1:35 AM 39.4 °F 35.2 °F 25.9 °F 58% 30.07 in 10.0 mi SSE 5.8 mph - N/A   Clear
1:55 AM 39.2 °F 35.9 °F 25.7 °F 58% 30.07 in 10.0 mi South 4.6 mph - N/A   Clear
2:15 AM 41.0 °F 39.0 °F 25.3 °F 54% 30.08 in 10.0 mi SW 3.5 mph - N/A   Clear
2:35 AM 40.1 °F 36.1 °F 26.6 °F 59% 30.08 in 10.0 mi SW 5.8 mph - N/A   Clear
2:55 AM 39.9 °F 37.8 °F 26.4 °F 59% 30.08 in 10.0 mi South 3.5 mph - N/A   Clear
3:15 AM 37.8 °F 35.3 °F 27.1 °F 66% 30.07 in 10.0 mi ESE 3.5 mph - N/A   Clear
3:35 AM 36.0 °F 31.1 °F 29.3 °F 77% 30.06 in 10.0 mi ESE 5.8 mph - N/A   Clear
3:55 AM 37.8 °F 34.2 °F 27.0 °F 65% 30.05 in 10.0 mi ESE 4.6 mph - N/A   Clear
4:15 AM 37.8 °F 33.3 °F 27.5 °F 67% 30.06 in 10.0 mi ESE 5.8 mph - N/A   Clear
4:35 AM 39.2 °F 37.0 °F 28.2 °F 65% 30.07 in 10.0 mi South 3.5 mph - N/A   Clear
4:55 AM 39.2 °F - 26.2 °F 60% 30.07 in 10.0 mi Calm Calm - N/A   Clear
5:15 AM 37.8 °F 35.3 °F 27.3 °F 66% 30.08 in 10.0 mi South 3.5 mph - N/A   Clear
5:35 AM 36.0 °F - 27.0 °F 70% 30.08 in 10.0 mi Calm Calm - N/A   Clear
6:15 AM 37.4 °F - 27.9 °F 68% 30.10 in 10.0 mi Calm Calm - N/A   Clear
6:35 AM 36.0 °F - 27.3 °F 71% 30.11 in 10.0 mi Calm Calm - N/A   Clear
6:55 AM 34.5 °F - 27.7 °F 76% 30.12 in 10.0 mi Calm Calm - N/A   Clear
7:15 AM 34.7 °F 30.6 °F 28.2 °F 77% 30.12 in 10.0 mi East 4.6 mph - N/A   Clear
7:35 AM 34.5 °F 30.4 °F 27.3 °F 75% 30.12 in 10.0 mi East 4.6 mph - N/A   Clear
7:55 AM 35.8 °F - 27.3 °F 71% 30.12 in 10.0 mi Calm Calm - N/A   Clear
8:35 AM 35.4 °F - 29.8 °F 80% 30.15 in 10.0 mi Calm Calm - N/A   Clear
8:55 AM 38.5 °F - 31.3 °F 75% 30.16 in 10.0 mi Calm Calm - N/A   Clear
9:15 AM 41.7 °F - 31.3 °F 66% 30.19 in 10.0 mi Calm Calm - N/A   Clear
9:35 AM 45.3 °F - 31.5 °F 58% 30.20 in 10.0 mi Calm Calm - N/A   Clear
9:55 AM 48.0 °F - 31.8 °F 54% 30.21 in 10.0 mi Calm Calm - N/A   Clear
10:15 AM 50.9 °F - 28.4 °F 42% 30.22 in 10.0 mi ESE 4.6 mph - N/A   Clear
10:35 AM 53.8 °F - 27.7 °F 37% 30.22 in 10.0 mi East 4.6 mph - N/A   Clear
10:55 AM 55.4 °F - 25.7 °F 32% 30.23 in 10.0 mi ESE 5.8 mph - N/A   Clear
11:15 AM 57.2 °F - 24.4 °F 28% 30.24 in 10.0 mi ESE 9.2 mph - N/A   Clear
11:35 AM 57.9 °F - 25.2 °F 28% 30.24 in 10.0 mi East 9.2 mph - N/A   Clear
11:55 AM 58.5 °F - 24.6 °F 27% 30.23 in 10.0 mi East 10.4 mph - N/A   Clear
12:15 PM 60.1 °F - 25.2 °F 26% 30.22 in 10.0 mi East 10.4 mph - N/A   Clear
12:35 PM 61.2 °F - 25.2 °F 25% 30.22 in 10.0 mi ESE 10.4 mph - N/A   Clear
12:55 PM 61.9 °F - 25.3 °F 25% 30.21 in 10.0 mi East 15.0 mph 19.6 mph N/A   Clear
1:15 PM 62.6 °F - 24.4 °F 23% 30.21 in 10.0 mi East 13.8 mph 17.3 mph N/A   Clear
1:35 PM 62.8 °F - 25.2 °F 24% 30.20 in 10.0 mi East 9.2 mph 18.4 mph N/A   Clear
1:55 PM 63.5 °F - 25.7 °F 24% 30.19 in 10.0 mi East 10.4 mph 17.3 mph N/A   Clear
2:15 PM 64.8 °F - 26.2 °F 23% 30.19 in 10.0 mi ESE 9.2 mph - N/A   Clear
2:35 PM 64.6 °F - 24.3 °F 22% 30.19 in 10.0 mi East 5.8 mph - N/A   Clear
2:55 PM 64.6 °F - 24.3 °F 22% 30.18 in 10.0 mi Calm Calm - N/A   Clear
3:15 PM 65.5 °F - 24.8 °F 21% 30.17 in 10.0 mi SSE 5.8 mph - N/A   Clear
3:35 PM 65.8 °F - 26.4 °F 23% 30.18 in 10.0 mi NNE 5.8 mph - N/A   Clear
4:15 PM 65.7 °F - 25.7 °F 22% 30.18 in 10.0 mi North 11.5 mph - N/A   Clear
4:35 PM 65.1 °F - 24.1 °F 21% 30.18 in 10.0 mi NNW 11.5 mph - N/A   Clear
5:15 PM 65.3 °F - 24.4 °F 21% 30.19 in 10.0 mi NNW 9.2 mph - N/A   Clear
5:35 PM 64.8 °F - 26.1 °F 23% 30.19 in 10.0 mi North 9.2 mph - N/A   Clear
5:55 PM 64.4 °F - 26.6 °F 24% 30.19 in 10.0 mi North 9.2 mph - N/A   Clear
6:15 PM 64.0 °F - 28.0 °F 26% 30.19 in 10.0 mi North 10.4 mph - N/A   Clear
6:35 PM 63.5 °F - 26.6 °F 25% 30.20 in 10.0 mi North 8.1 mph - N/A   Clear
6:55 PM 62.6 °F - 28.0 °F 27% 30.21 in 10.0 mi North 8.1 mph - N/A   Clear
7:15 PM 60.1 °F - 30.6 °F 33% 30.21 in 10.0 mi North 4.6 mph - N/A   Clear
7:35 PM 57.2 °F - 31.6 °F 38% 30.22 in 10.0 mi North 5.8 mph - N/A   Clear
8:15 PM 54.7 °F - 33.6 °F 45% 30.24 in 10.0 mi North 5.8 mph - N/A   Clear
8:35 PM 53.8 °F - 34.7 °F 48% 30.24 in 10.0 mi North 5.8 mph - N/A   Clear
8:55 PM 53.2 °F - 33.6 °F 47% 30.26 in 10.0 mi North 6.9 mph - N/A   Clear
9:15 PM 53.1 °F - 37.4 °F 55% 30.26 in 10.0 mi North 5.8 mph - N/A   Clear
9:35 PM 52.7 °F - 37.6 °F 56% 30.27 in 10.0 mi North 4.6 mph - N/A   Clear
9:55 PM 52.7 °F - 36.5 °F 54% 30.28 in 10.0 mi North 4.6 mph - N/A   Clear
10:15 PM 52.3 °F - 36.9 °F 56% 30.29 in 10.0 mi North 3.5 mph - N/A   Clear
10:35 PM 52.7 °F - 36.1 °F 53% 30.29 in 10.0 mi North 4.6 mph - N/A   Clear
10:55 PM 51.3 °F - 35.6 °F 55% 30.30 in 10.0 mi North 3.5 mph - N/A   Clear
11:15 PM 50.0 °F - 35.4 °F 57% 30.31 in 10.0 mi Calm Calm - N/A   Clear
11:35 PM 49.5 °F - 36.9 °F 62% 30.31 in 10.0 mi Calm Calm - N/A   Clear
11:55 PM 49.3 °F - 34.0 °F 56% 30.32 in 10.0 mi Calm Calm - N/A   Clear